Weather History for Newberry, SC

Change the Weather History Date:

Friday, November 23, 2012

  Actual Average (KFDW) Record (KFDW)
Temperature  
Mean Temperature 51 °F -  
Max Temperature 69 °F 60 °F 75 °F (2010)
Min Temperature 33 °F 38 °F 42 °F (2014)
Degree Days  
Heating Degree Days 14    
Growing Degree Days 1 (Base 50)    
Moisture  
Dew Point 40 °F    
Average Humidity 68    
Maximum Humidity 100    
Minimum Humidity 35    
Precipitation  
Precipitation 0.00 in - - ()
Sea Level Pressure  
Sea Level Pressure 30.09 in    
Wind  
Wind Speed 4 mph (SW)    
Max Wind Speed 15 mph    
Max Gust Speed 20 mph    
Visibility 10 miles    
Events      
Averages and records for this station are not official NWS values.
T = Trace of Precipitation, MM = Missing Value Source: NWS Daily Summary

Daily Weather History Graph

Daily Weather History Graph

Search for Another Location

Airport:

Trip Planner

Search our weather history database for the weather conditions in past years. The results will help you decide how hot, cold, wet, or windy it might be!

Date:

Astronomy

Nov. 23, 2012 Rise Set
Actual Time 7:07 AM EST 5:18 PM EST
Civil Twilight 6:40 AM EST 5:45 PM EST
Nautical Twilight 6:09 AM EST 6:16 PM EST
Astronomical Twilight 5:39 AM EST 6:46 PM EST
Moon 2:23 PM EST (11/23) 2:35 AM EST (11/23)
Length of Visible Light 11h 04m
Length of Day
10h 10m
Waxing Gibbous, 79% of the Moon is Illuminated
Nov 23
Waxing Gibbous
Nov 28
Full
Dec 6
Last Quarter
Dec 13
New
Dec 20
First Quarter

Hourly Weather History & Observations

Time (EST) Temp. Windchill Dew Point Humidity Pressure Visibility Wind Dir Wind Speed Gust Speed Precip Events Conditions
12:15 AM 37.4 °F - 35.6 °F 93% 30.21 in 10.0 mi Calm Calm - N/A   Clear
12:35 AM 37.4 °F - 35.6 °F 93% 30.20 in 10.0 mi Calm Calm - N/A   Clear
12:55 AM 37.4 °F - 35.6 °F 93% 30.20 in 10.0 mi Calm Calm - N/A   Clear
1:15 AM 35.6 °F - 33.8 °F 93% 30.19 in 10.0 mi Calm Calm - N/A   Clear
1:35 AM 35.6 °F - 35.6 °F 100% 30.19 in 10.0 mi Calm Calm - N/A   Clear
1:55 AM 35.6 °F - 33.8 °F 93% 30.20 in 10.0 mi Calm Calm - N/A   Clear
2:15 AM 35.6 °F - 33.8 °F 93% 30.19 in 10.0 mi Calm Calm - N/A   Clear
2:35 AM 35.6 °F - 33.8 °F 93% 30.19 in 10.0 mi Calm Calm - N/A   Clear
2:55 AM 35.6 °F - 35.6 °F 100% 30.19 in 10.0 mi Calm Calm - N/A   Clear
3:15 AM 33.8 °F - 33.8 °F 100% 30.19 in 10.0 mi Calm Calm - N/A   Clear
3:35 AM 33.8 °F - 33.8 °F 100% 30.19 in 10.0 mi Calm Calm - N/A   Clear
3:55 AM 33.8 °F - 33.8 °F 100% 30.19 in 10.0 mi Calm Calm - N/A   Clear
4:15 AM 33.8 °F - 33.8 °F 100% 30.18 in 10.0 mi Calm Calm - N/A   Clear
4:35 AM 33.8 °F - 33.8 °F 100% 30.18 in 10.0 mi Calm Calm - N/A   Clear
4:55 AM 33.8 °F - 33.8 °F 100% 30.18 in 10.0 mi Calm Calm - N/A   Clear
5:15 AM 33.8 °F - 33.8 °F 100% 30.18 in 10.0 mi Calm Calm - N/A   Clear
5:35 AM 33.8 °F - 33.8 °F 100% 30.18 in 10.0 mi Calm Calm - N/A   Clear
5:55 AM 33.8 °F 30.8 °F 33.8 °F 100% 30.18 in 10.0 mi South 3.5 mph - N/A   Clear
6:15 AM 33.8 °F 29.6 °F 33.8 °F 100% 30.18 in 10.0 mi South 4.6 mph - N/A   Clear
6:35 AM 33.8 °F 29.6 °F 33.8 °F 100% 30.18 in 10.0 mi South 4.6 mph - N/A   Clear
6:55 AM 33.8 °F 29.6 °F 33.8 °F 100% 30.18 in 10.0 mi South 4.6 mph - N/A   Clear
7:15 AM 35.6 °F 31.7 °F 35.6 °F 100% 30.17 in 10.0 mi South 4.6 mph - N/A   Clear
7:35 AM 35.6 °F 31.7 °F 35.6 °F 100% 30.17 in 10.0 mi South 4.6 mph - N/A   Clear
7:55 AM 37.4 °F 33.8 °F 37.4 °F 100% 30.17 in 10.0 mi SSW 4.6 mph - N/A   Clear
8:15 AM 42.8 °F 39.3 °F 39.2 °F 87% 30.16 in 10.0 mi South 5.8 mph - N/A   Clear
8:35 AM 44.6 °F 42.2 °F 39.2 °F 81% 30.16 in 10.0 mi SSW 4.6 mph - N/A   Clear
8:55 AM 44.6 °F 41.4 °F 39.2 °F 81% 30.16 in 10.0 mi SSW 5.8 mph - N/A   Clear
9:15 AM 46.4 °F 42.9 °F 41.0 °F 81% 30.15 in 10.0 mi SSW 6.9 mph - N/A   Clear
9:35 AM 50.0 °F - 41.0 °F 71% 30.16 in 10.0 mi SW 6.9 mph - N/A   Clear
9:55 AM 53.6 °F - 41.0 °F 62% 30.15 in 10.0 mi SW 5.8 mph - N/A   Clear
10:15 AM 55.4 °F - 42.8 °F 63% 30.14 in 10.0 mi WSW 6.9 mph - N/A   Clear
10:35 AM 57.2 °F - 42.8 °F 59% 30.14 in 10.0 mi SW 6.9 mph - N/A   Clear
10:55 AM 59.0 °F - 42.8 °F 55% 30.13 in 10.0 mi SW 8.1 mph - N/A   Clear
11:15 AM 60.8 °F - 42.8 °F 52% 30.12 in 10.0 mi WSW 10.4 mph - N/A   Clear
11:35 AM 62.6 °F - 44.6 °F 52% 30.11 in 10.0 mi WSW 6.9 mph - N/A   Clear
12:15 PM 64.4 °F - 42.8 °F 45% 30.08 in 10.0 mi SW 9.2 mph - N/A   Clear
12:35 PM 64.4 °F - 42.8 °F 45% 30.07 in 10.0 mi West 5.8 mph - N/A   Clear
12:55 PM 66.2 °F - 42.8 °F 43% 30.06 in 10.0 mi SW 10.4 mph - N/A   Clear
1:15 PM 66.2 °F - 42.8 °F 43% 30.05 in 10.0 mi WSW 10.4 mph - N/A   Clear
1:35 PM 68.0 °F - 42.8 °F 40% 30.04 in 10.0 mi WSW 9.2 mph - N/A   Clear
1:55 PM 68.0 °F - 42.8 °F 40% 30.02 in 10.0 mi SW 11.5 mph - N/A   Clear
2:15 PM 68.0 °F - 41.0 °F 37% 30.01 in 10.0 mi WSW 11.5 mph - N/A   Clear
2:35 PM 68.0 °F - 41.0 °F 37% 30.02 in 10.0 mi WSW 12.7 mph - N/A   Clear
2:55 PM 68.0 °F - 41.0 °F 37% 30.01 in 10.0 mi SW 11.5 mph - N/A   Clear
3:15 PM 68.0 °F - 41.0 °F 37% 30.00 in 10.0 mi SW 12.7 mph 17.3 mph N/A   Clear
3:35 PM 69.8 °F - 41.0 °F 35% 29.99 in 10.0 mi WSW 11.5 mph - N/A   Clear
3:55 PM 69.8 °F - 41.0 °F 35% 30.00 in 10.0 mi WSW 15.0 mph 19.6 mph N/A   Clear
4:15 PM 68.0 °F - 41.0 °F 37% 29.99 in 10.0 mi WSW 9.2 mph - N/A   Clear
4:35 PM 68.0 °F - 41.0 °F 37% 29.99 in 10.0 mi WSW 8.1 mph - N/A   Clear
4:55 PM 66.2 °F - 41.0 °F 40% 29.99 in 10.0 mi SW 6.9 mph - N/A   Clear
5:15 PM 64.4 °F - 42.8 °F 45% 29.99 in 10.0 mi SW 6.9 mph - N/A   Clear
5:35 PM 62.6 °F - 42.8 °F 48% 29.98 in 10.0 mi SW 6.9 mph - N/A   Clear
5:55 PM 62.6 °F - 42.8 °F 48% 29.99 in 10.0 mi SW 5.8 mph - N/A   Clear
6:15 PM 62.6 °F - 42.8 °F 48% 29.99 in 10.0 mi SW 4.6 mph - N/A   Clear
6:35 PM 60.8 °F - 42.8 °F 52% 29.98 in 10.0 mi SSW 5.8 mph - N/A   Clear
6:55 PM 60.8 °F - 42.8 °F 52% 29.98 in 10.0 mi SSW 5.8 mph - N/A   Mostly Cloudy
7:15 PM 60.8 °F - 44.6 °F 55% 29.98 in 10.0 mi SW 5.8 mph - N/A   Overcast
7:35 PM 62.6 °F - 44.6 °F 52% 29.98 in 10.0 mi SW 8.1 mph - N/A   Overcast
7:55 PM 60.8 °F - 44.6 °F 55% 29.98 in 10.0 mi SW 8.1 mph - N/A   Mostly Cloudy
8:15 PM 59.0 °F - 44.6 °F 59% 29.98 in 10.0 mi WSW 6.9 mph - N/A   Scattered Clouds
8:35 PM 59.0 °F - 44.6 °F 59% 29.98 in 10.0 mi West 5.8 mph - N/A   Clear
8:55 PM 57.2 °F - 44.6 °F 63% 29.98 in 10.0 mi West 8.1 mph - N/A   Clear
9:15 PM 59.0 °F - 46.4 °F 63% 29.98 in 10.0 mi West 8.1 mph - N/A   Clear
9:35 PM 60.8 °F - 46.4 °F 59% 29.98 in 10.0 mi West 8.1 mph - N/A   Clear
9:55 PM 60.8 °F - 46.4 °F 59% 29.98 in 10.0 mi WNW 9.2 mph - N/A   Clear
10:15 PM 60.8 °F - 44.6 °F 55% 29.99 in 10.0 mi West 6.9 mph - N/A   Clear
10:35 PM 59.0 °F - 42.8 °F 55% 29.99 in 10.0 mi West 6.9 mph - N/A   Clear
10:55 PM 59.0 °F - 42.8 °F 55% 29.99 in 10.0 mi WNW 6.9 mph - N/A   Clear
11:15 PM 57.2 °F - 42.8 °F 59% 30.00 in 10.0 mi NW 8.1 mph - N/A   Clear
11:35 PM 55.4 °F - 42.8 °F 63% 30.00 in 10.0 mi NW 3.5 mph - N/A   Clear
11:55 PM 55.4 °F - 35.6 °F 47% 30.00 in 10.0 mi NNW 11.5 mph 18.4 mph N/A   Clear